Tracking 34408 objects as of 13-Jun-2026
HD Live streaming from Space Station
objects crossing your sky now

THORAD AGENA D DEB

Track THORAD AGENA D DEB now!
10-day predictions


NORAD ID: 4749
Int'l Code: 1970-025CX
Perigee: 937.8 km
Apogee: 961.4 km
Inclination: 99.0 °
Period: 103.9 minutes
Semi major axis: 7320 km
RCS: 0.0977 m2 (small)
Launch date: April 8, 1970
Source: United States (US)
Launch site: AIR FORCE WESTERN TEST RANGE (AFWTR)

Note: This is SATELLITE DEBRIS
Your satellite tracking list
Your tracking list is empty




NASA's NSSDC Master Catalog

Two Line Element Set (TLE):
1 04749U 70025CX  26164.24730688  .00000870  00000-0  79089-3 0  9996
2 04749  98.9992 358.9416 0016131  16.9662 343.2031 13.86054572802805
Source of the keplerian elements: AFSPC